Regional Weather Roundup
Issued by NWS Albany, NY

Home | Current Version | Previous Version | Graphics & Text | Print | Product List | Glossary Off
Versions: 1 2 3 4 5 6 7 8 9 10 11 12 13 14 15 16 17 18 19 20 21 22 23 24 25 26 27 28 29 30 31 32 33 34 35 36 37 38 39 40 41 42 43 44 45 46 47 48 49 50

000
ASUS41 KALY 262210
RWRALY

NEW YORK STATE HOURLY WEATHER ROUNDUP
NATIONAL WEATHER SERVICE ALBANY NY
600 PM EDT WED APR 26 2017

NOTE: "FAIR" INDICATES FEW OR NO CLOUDS BELOW 12,000 FEET WITH NO
SIGNIFICANT WEATHER AND/OR NO OBSTRUCTIONS TO VISIBILITY.

NYZ032-033-038>043-046>054-057>066-NYZ062>081-082-084-262300-
EAST


CITY           SKY/WX    TMP DP  RH WIND       PRES   REMARKS
ALBANY         PTSUNNY   69  57  65 W8        29.75S
GLENS FALLS    SUNNY     70  55  59 N8        29.76S
POUGHKEEPSIE   CLOUDY    60  55  83 CALM      29.77R
NEWBURGH       CLOUDY    59  57  94 VRB5      29.79R FOG
MONTGOMERY     CLOUDY    61  56  83 CALM      29.78R
WHITE PLAINS   PTSUNNY   60  56  86 CALM      29.77R
ISLIP          PTSUNNY   64  58  80 N8        29.75R
NEW YORK CITY  CLOUDY    59  56  89 NE5       29.77R FOG
CENTRAL PARK   CLOUDY    59  57  93 CALM      29.81R FOG
$$

NYZ005>009-017-018-044>046-055-056-262300-
CENTRAL


CITY           SKY/WX    TMP DP  RH WIND       PRES   REMARKS
FULTON         SUNNY     71  55  56 N6        29.71F
SYRACUSE       MOSUNNY   72  57  59 NE9       29.70F
ROME           SUNNY     71  57  61 SE15      29.74S
ELMIRA         SUNNY     76  54  46 SE6       29.70F
BINGHAMTON     MOSUNNY   71  53  52 VRB6      29.74F
MONTICELLO     PTSUNNY   61  57  88 E7        29.81R
$$

NYZ026>034-041>043-087-262300-
NORTH


CITY           SKY/WX    TMP DP  RH WIND       PRES   REMARKS
WATERTOWN      SUNNY     73  59  61 W7        29.70F
FORT DRUM      NOT AVBL
OGDENSBURG     FAIR      69  57  65 N8        29.75S
MASSENA        MOSUNNY   65  56  72 NE9       29.77F
SARANAC LAKE   PTSUNNY   68  57  68 NE3       29.76S
PLATTSBURGH    CLOUDY    66  53  63 NE7       29.78S
$$

NYZ001>004-010>016-019>021-085-262300-
WEST


CITY           SKY/WX    TMP DP  RH WIND       PRES   REMARKS
NIAGARA FALLS  SUNNY     71  56  58 N9        29.66F
BUFFALO        MOSUNNY   75  59  57 NE9       29.66F
DUNKIRK        SUNNY     66  55  67 N3        29.67F
JAMESTOWN      SUNNY     75  54  46 S9G17     29.70S
WELLSVILLE     SUNNY     75  52  44 SE8       29.74F
ROCHESTER      PTSUNNY   69  55  60 NE9       29.70F
PENN YAN       SUNNY     73  55  53 E5        29.72S
$$

             KEY
       WCI = WIND CHILL INDEX
       VSB = VISIBILITY
       HX  = HEAT INDEX
$$



USA.gov is the U.S. government's official web portal to all federal, state and local government web resources and services.